Miscellaneous Local Product
Issued by NWS Hastings, NE

Home | Current Version | Previous Version | Graphics & Text | Print | Product List | Glossary On
Versions: 1 2 3 4 5 6 7 8 9 10 11 12 13 14 15 16 17 18 19 20 21 22 23 24 25 26 27 28 29 30 31 32 33 34 35 36 37 38 39 40 41 42 43 44 45 46 47 48 49 50
000
AXUS43 KGID 190102
MISGRI

GID CWA HOURLY WEATHER ROUNDUP
NATIONAL WEATHER SERVICE HASTINGS NE
700 PM CST THU DEC 18 2014

NOTE: "FAIR" INDICATES FEW OR NO CLOUDS BELOW 12,000 FEET WITH NO
SIGNIFICANT WEATHER AND/OR OBSTRUCTIONS TO VISIBILITY.

...SOUTH CENTRAL NEBRASKA...

CITY           SKY/WX    TMP DP  RH WIND       PRES   REMARKS
GRAND ISLAND   CLOUDY    29  26  89 CALM      30.17R
HASTINGS       CLOUDY    30  25  81 W5        30.15R WCI  25
KEARNEY        CLOUDY    28  23  80 SW7       30.15R WCI  21
ORD            CLOUDY    28  24  85 S5        30.12S WCI  23
YORK           CLOUDY    28  27  93 S3        30.18R
AURORA         CLOUDY    30  27  88 CALM      30.17R
LEXINGTON      CLOUDY    30  28  90 SW7       30.12S WCI  23
HOLDREGE       CLOUDY    28  26  89 W3        30.13S
HEBRON         CLOUDY    30  26  83 CALM      30.19R

...NEBRASKA PANHANDLE...

CITY           SKY/WX    TMP DP  RH WIND       PRES   REMARKS
CHADRON        PTCLDY    22  17  81 SW8       30.03S WCI  12
ALLIANCE       PTCLDY    18  15  88 W7        30.03R WCI   9
SCOTTSBLUFF    CLOUDY    16  13  88 S3        30.05R
SIDNEY         PTCLDY    25  19  78 W8        30.06R WCI  16

...WESTERN AND NORTH CENTRAL NEBRASKA...

CITY           SKY/WX    TMP DP  RH WIND       PRES   REMARKS
VALENTINE      CLEAR     18  16  92 SE3       30.06R FOG
AINSWORTH      CLOUDY    23  22  97 S3        30.07F FOG
ONEILL         CLOUDY    28  27  93 CALM      30.12S
BROKEN BOW     CLOUDY    30  27  88 SW9       30.10R WCI  22
IMPERIAL       MOCLDY    24  21  88 SW3       30.09R FOG
NORTH PLATTE   PTCLDY    24  22  91 S3        30.09S FOG
MCCOOK         CLOUDY    29  27  92 SW5       30.12R WCI  24

...EASTERN NEBRASKA...

CITY           SKY/WX    TMP DP  RH WIND       PRES   REMARKS
NORFOLK        CLOUDY    29  25  85 S3        30.17R
SO SIOUX CITY  CLOUDY    30  25  81 SE7       30.21S WCI  23
TEKAMAH        CLOUDY    31  26  82 SE5       30.22S WCI  26
COLUMBUS       CLOUDY    28  21  74 S5        30.19S WCI  23
ALBION         CLOUDY    28  25  86 S5        30.16R WCI  23
OMAHA EPPLEY   CLOUDY    31  26  82 SE6       30.23S WCI  25
OFFUTT AFB     CLOUDY    30  27  86 VRB1      30.22S
MILLARD        CLOUDY    32  27  83 CALM      30.22R
LINCOLN        CLOUDY    32  27  81 CALM      30.22R
NEBRASKA CITY  CLOUDY    30  29  96 CALM      30.21S
BEATRICE       CLOUDY    31  28  88 CALM      30.20R
FALLS CITY     CLOUDY    30  27  88 CALM      30.23R

...NORTHERN KANSAS...

CITY           SKY/WX    TMP DP  RH WIND       PRES   REMARKS
GOODLAND       CLEAR     25  23  92 CALM      30.09R
HILL CITY      CLOUDY    32  28  85 CALM      30.16R
NORTON         CLOUDY    30  25  80 S7        30.13S WCI  23
PHILLIPSBURG   CLOUDY    34  30  86 CALM      30.17S
SMITH CENTER   CLOUDY    30  27  86 SE3       30.18S
BELOIT         CLOUDY    28  27  93 CALM      30.20R
HAYS           CLOUDY    34  23  64 CALM      30.17S
RUSSELL        CLOUDY    30  28  92 SE5       30.17R WCI  25
CONCORDIA      CLOUDY    28  26  92 S5        30.20R WCI  23
SALINA         CLOUDY    32  27  81 CALM      30.23R
TOPEKA         CLOUDY    33  29  85 NE3       30.24R



USA.gov is the U.S. government's official web portal to all federal, state and local government web resources and services.